AIZ815 LLBG-LLER

Flight info

Callsign AIZ815
Flight time 0h 30m
Altitude 19000
Route TOMAL J10 NURIT
Aircraft A21N/M-SDE2E3FGHIRWXY/LB1

Departure

Time 2026-05-09 20:08
Airport Ben Gurion International Airport (LLBG)

Arrival

Time 2026-05-09 20:39
Airport Ramon International Airport (LLER)
Time Latitude Longitude Altitude Speed Heading
2026-05-09 19:51 31.99654 34.88946 125 ft 0 kts 288°
2026-05-09 20:01 31.99652 34.88951 125 ft 3 kts 288°
2026-05-09 20:01 31.99644 34.88981 125 ft 4 kts 288°
2026-05-09 20:01 31.99636 34.89011 121 ft 4 kts 287°
2026-05-09 20:01 31.99629 34.89033 120 ft 4 kts 317°
2026-05-09 20:02 31.99610 34.89037 125 ft 4 kts 18°
2026-05-09 20:02 31.99620 34.89041 125 ft 4 kts 18°
2026-05-09 20:02 31.99645 34.89051 125 ft 4 kts 18°
2026-05-09 20:03 31.99694 34.89069 125 ft 1 kts 17°
2026-05-09 20:05 31.99695 34.89069 125 ft 1 kts 17°
2026-05-09 20:05 31.99716 34.89077 125 ft 5 kts 17°
2026-05-09 20:06 31.99764 34.89094 125 ft 9 kts 17°
2026-05-09 20:06 31.99838 34.89120 125 ft 13 kts 17°
2026-05-09 20:06 31.99875 34.89210 121 ft 17 kts 116°
2026-05-09 20:06 31.99806 34.89333 125 ft 19 kts 124°
2026-05-09 20:07 31.99821 34.89434 125 ft 14 kts 21°
2026-05-09 20:07 31.99921 34.89466 125 ft 16 kts 14°
2026-05-09 20:07 32.00010 34.89405 124 ft 17 kts 301°
2026-05-09 20:07 32.00136 34.89159 121 ft 67 kts 301°
2026-05-09 20:08 32.00496 34.88464 125 ft 129 kts 301°
2026-05-09 20:08 32.01664 34.86204 673 ft 175 kts 298°
2026-05-09 20:08 32.02116 34.84887 1351 ft 172 kts 281°
2026-05-09 20:09 32.01883 34.83541 1934 ft 174 kts 233°
2026-05-09 20:09 32.00892 34.82673 2452 ft 189 kts 202°
2026-05-09 20:09 31.99511 34.82617 2939 ft 217 kts 163°
2026-05-09 20:09 31.98141 34.83561 3423 ft 244 kts 142°
2026-05-09 20:10 31.96696 34.84808 3918 ft 267 kts 142°
2026-05-09 20:10 31.95163 34.86140 4619 ft 278 kts 143°
2026-05-09 20:10 31.93602 34.87492 5485 ft 281 kts 143°
2026-05-09 20:10 31.92021 34.88859 6334 ft 283 kts 143°
2026-05-09 20:11 31.90429 34.90232 7156 ft 285 kts 144°
2026-05-09 20:11 31.88819 34.91619 7921 ft 288 kts 144°
2026-05-09 20:11 31.87192 34.93019 8652 ft 292 kts 144°
2026-05-09 20:11 31.85567 34.94418 9360 ft 295 kts 144°
2026-05-09 20:12 31.83901 34.95849 10108 ft 298 kts 144°
2026-05-09 20:12 31.82184 34.97327 10513 ft 315 kts 145°
2026-05-09 20:12 31.80356 34.98894 10806 ft 335 kts 145°
2026-05-09 20:12 31.78416 35.00556 11078 ft 355 kts 145°
2026-05-09 20:13 31.76369 35.02308 11337 ft 374 kts 145°
2026-05-09 20:13 31.74215 35.04150 11571 ft 390 kts 146°
2026-05-09 20:13 31.71978 35.06039 11948 ft 400 kts 146°
2026-05-09 20:13 31.69717 35.07972 12535 ft 404 kts 145°
2026-05-09 20:14 31.67449 35.09931 13131 ft 407 kts 146°
2026-05-09 20:14 31.65157 35.11904 13665 ft 410 kts 146°
2026-05-09 20:14 31.62838 35.13891 14170 ft 415 kts 146°
2026-05-09 20:14 31.61261 35.15239 14496 ft 418 kts 146°
2026-05-09 20:15 31.58130 35.17912 15148 ft 422 kts 146°
2026-05-09 20:15 31.56523 35.19286 15446 ft 425 kts 146°
2026-05-09 20:15 31.54125 35.21332 15899 ft 429 kts 146°
2026-05-09 20:15 31.51693 35.23404 16343 ft 433 kts 146°
2026-05-09 20:16 31.49283 35.25456 16759 ft 437 kts 146°
2026-05-09 20:16 31.46779 35.27588 17178 ft 441 kts 146°
2026-05-09 20:16 31.44324 35.29684 17583 ft 444 kts 146°
2026-05-09 20:16 31.41813 35.31818 17994 ft 448 kts 146°
2026-05-09 20:17 31.39279 35.33969 18407 ft 451 kts 146°
2026-05-09 20:17 31.36685 35.36053 18833 ft 452 kts 151°
2026-05-09 20:17 31.33855 35.37650 19041 ft 455 kts 162°
2026-05-09 20:17 31.30785 35.38541 19097 ft 454 kts 175°
2026-05-09 20:18 31.27646 35.38669 19099 ft 449 kts 186°
2026-05-09 20:18 31.24537 35.38352 19092 ft 449 kts 188°
2026-05-09 20:18 31.21431 35.37988 19065 ft 449 kts 188°
2026-05-09 20:18 31.18325 35.37638 19064 ft 449 kts 188°
2026-05-09 20:19 31.15218 35.37303 19055 ft 449 kts 188°
2026-05-09 20:19 31.12103 35.36979 19064 ft 449 kts 188°
2026-05-09 20:19 31.08990 35.36659 19057 ft 449 kts 188°
2026-05-09 20:19 31.05882 35.36340 19049 ft 449 kts 188°
2026-05-09 20:20 31.02770 35.36021 19054 ft 449 kts 187°
2026-05-09 20:20 30.99657 35.35701 19048 ft 449 kts 187°
2026-05-09 20:20 30.96549 35.35363 19053 ft 449 kts 189°
2026-05-09 20:20 30.93501 35.34649 19050 ft 445 kts 199°
2026-05-09 20:21 30.90615 35.33373 19051 ft 443 kts 205°
2026-05-09 20:21 30.87787 35.31949 19046 ft 443 kts 206°
2026-05-09 20:21 30.84957 35.30519 19043 ft 443 kts 206°
2026-05-09 20:21 30.82128 35.29107 19043 ft 443 kts 205°
2026-05-09 20:22 30.79289 35.27702 19034 ft 443 kts 205°
2026-05-09 20:22 30.76455 35.26306 19032 ft 443 kts 205°
2026-05-09 20:22 30.73615 35.24909 19033 ft 443 kts 205°
2026-05-09 20:22 30.70781 35.23516 19028 ft 443 kts 205°
2026-05-09 20:23 30.67960 35.22133 18853 ft 434 kts 205°
2026-05-09 20:23 30.65151 35.20753 18496 ft 440 kts 205°
2026-05-09 20:23 30.62357 35.19383 17945 ft 433 kts 205°
2026-05-09 20:23 30.59588 35.18027 17313 ft 430 kts 205°
2026-05-09 20:24 30.56837 35.16705 16739 ft 426 kts 202°
2026-05-09 20:24 30.53991 35.15820 16215 ft 425 kts 192°
2026-05-09 20:24 30.51038 35.15404 15750 ft 425 kts 187°
2026-05-09 20:24 30.48157 35.15062 15264 ft 419 kts 188°
2026-05-09 20:25 30.45252 35.14623 14791 ft 413 kts 189°
2026-05-09 20:25 30.42436 35.14129 14380 ft 405 kts 190°
2026-05-09 20:25 30.39675 35.13614 14002 ft 398 kts 191°
2026-05-09 20:25 30.36962 35.13096 13621 ft 391 kts 191°
2026-05-09 20:26 30.34295 35.12584 13188 ft 387 kts 191°
2026-05-09 20:26 30.31654 35.12162 12651 ft 383 kts 188°
2026-05-09 20:26 30.29009 35.11790 12168 ft 381 kts 188°
2026-05-09 20:26 30.26420 35.11379 11825 ft 369 kts 189°
2026-05-09 20:27 30.23930 35.10947 11602 ft 355 kts 189°
2026-05-09 20:27 30.21533 35.10512 11415 ft 342 kts 190°
2026-05-09 20:27 30.19237 35.10051 11244 ft 328 kts 191°
2026-05-09 20:27 30.17031 35.09591 11032 ft 315 kts 191°
2026-05-09 20:28 30.14915 35.09149 10793 ft 302 kts 191°
2026-05-09 20:28 30.12927 35.08536 10404 ft 294 kts 197°
2026-05-09 20:28 30.10975 35.07845 9948 ft 295 kts 196°
2026-05-09 20:29 30.07026 35.06723 9244 ft 289 kts 190°
2026-05-09 20:29 30.05055 35.06293 8820 ft 288 kts 189°
2026-05-09 20:29 30.03075 35.05894 8376 ft 288 kts 188°
2026-05-09 20:29 30.01095 35.05504 7990 ft 288 kts 188°
2026-05-09 20:30 29.99148 35.05122 7605 ft 288 kts 188°
2026-05-09 20:30 29.97180 35.04739 7225 ft 287 kts 188°
2026-05-09 20:30 29.95217 35.04358 6844 ft 286 kts 188°
2026-05-09 20:30 29.93276 35.03983 6598 ft 280 kts 188°
2026-05-09 20:31 29.91393 35.03618 6439 ft 269 kts 188°
2026-05-09 20:31 29.89572 35.03260 6248 ft 263 kts 188°
2026-05-09 20:31 29.87782 35.02892 6079 ft 261 kts 188°
2026-05-09 20:31 29.85997 35.02534 5945 ft 256 kts 188°
2026-05-09 20:32 29.84246 35.02190 5940 ft 255 kts 188°
2026-05-09 20:32 29.82504 35.01828 5946 ft 255 kts 192°
2026-05-09 20:32 29.80894 35.01109 5897 ft 241 kts 205°
2026-05-09 20:32 29.79428 35.00247 5702 ft 233 kts 206°
2026-05-09 20:33 29.77997 34.99399 5367 ft 231 kts 205°
2026-05-09 20:33 29.76568 34.98559 5020 ft 230 kts 206°
2026-05-09 20:33 29.75132 34.97753 4659 ft 230 kts 201°
2026-05-09 20:33 29.73618 34.97173 4531 ft 229 kts 195°
2026-05-09 20:34 29.72171 34.96699 4574 ft 203 kts 194°
2026-05-09 20:34 29.70857 34.96271 4372 ft 193 kts 195°
2026-05-09 20:34 29.69584 34.95846 4018 ft 188 kts 195°
2026-05-09 20:34 29.68340 34.95424 3662 ft 186 kts 195°
2026-05-09 20:35 29.67123 34.95016 3466 ft 177 kts 195°
2026-05-09 20:35 29.65942 34.94617 3550 ft 177 kts 195°
2026-05-09 20:35 29.64731 34.94439 3327 ft 176 kts 166°
2026-05-09 20:35 29.63761 34.95194 2945 ft 169 kts 120°
2026-05-09 20:36 29.63426 34.96455 2568 ft 167 kts 98°
2026-05-09 20:36 29.63290 34.97787 2096 ft 169 kts 88°
2026-05-09 20:36 29.63882 34.98930 1713 ft 176 kts 34°
2026-05-09 20:36 29.64966 34.99289 1620 ft 150 kts
2026-05-09 20:37 29.65917 34.99508 1376 ft 135 kts 11°
2026-05-09 20:37 29.66819 34.99778 1132 ft 133 kts 11°
2026-05-09 20:37 29.67716 35.00034 1011 ft 134 kts 12°
2026-05-09 20:37 29.68625 35.00278 814 ft 134 kts 10°
2026-05-09 20:38 29.69532 35.00510 613 ft 136 kts 12°
2026-05-09 20:38 29.70445 35.00772 454 ft 135 kts 13°
2026-05-09 20:38 29.71373 35.01040 322 ft 137 kts 13°
2026-05-09 20:38 29.72202 35.01267 303 ft 90 kts 13°
2026-05-09 20:39 29.72361 35.01310 303 ft 2 kts
2026-05-09 20:39 29.72392 35.01253 304 ft 14 kts 285°
2026-05-09 20:39 29.72409 35.01130 303 ft 17 kts 258°
2026-05-09 20:39 29.72413 35.00987 305 ft 19 kts 285°
2026-05-09 20:40 29.72434 35.00898 303 ft 11 kts 309°
2026-05-09 20:40 29.72475 35.00864 303 ft 8 kts 295°
2026-05-09 20:40 29.72486 35.00813 305 ft 3 kts 284°
2026-05-09 20:40 29.72490 35.00794 303 ft 0 kts 284°